Location: Shenandoah County Park
(38.9356°N, 78.4524°W)
Time: 05:28:25
(UTC-04:00)

Explorer 11/Cluster Stage 4 - Pass Details

Date: 28 February 2024
Orbit: 465 x 1220 km, 28.8° (Epoch: 12 April)

Event Time Altitude Azimuth Distance (km) Brightness Sun altitude
Rises 02:10:38 0° 256° (WSW) 4,129 - -51.3°
Reaches altitude 10° 02:13:47 10° 249° (WSW) 3,162 - -50.9°
Maximum altitude 02:21:02 38° 184° (S) 1,692 - -49.9°
Drops below altitude 10° 02:27:40 10° 119° (ESE) 2,892 - -48.9°
Exits shadow 02:29:59 - 113° (ESE) 3,602 10.2 -48.6°
Sets 02:30:25 0° 112° (ESE) 3,744 10.3 -48.5°
